Location: *
(48.8489°N, 2.3218°E)
Time: 14:26:13
(UTC+00:00)

DMSP B5D2-2 - Pass Details

Date: 23 August 2019
Orbit: 791 x 805 km, 98.4° (Epoch: 20 September)

Event Time Altitude Azimuth Distance (km) Brightness Sun altitude
Rises 20:06:18 0° 18° (NNE) 3,314 7.5 -11.9°
Reaches altitude 10° 20:08:43 10° 24° (NNE) 2,382 6.7 -12.2°
Maximum altitude 20:13:49 49° 99° (E) 1,024 4.3 -12.9°
Drops below altitude 10° 20:18:54 10° 174° (S) 2,374 6.2 -13.6°
Enters shadow 20:20:15 - 178° (S) 2,886 6.6 -13.8°
